Location: Newark
(46.9000°N, 28.3500°E)
Time: 21:52:29
(UTC+00:00)

Explorer 7 - Pass Details

Date: 02 September 2019
Orbit: 485 x 680 km, 50.3° (Epoch: 22 October)

Event Time Altitude Azimuth Distance (km) Brightness Sun altitude
Rises 03:42:35 0° 227° (SW) 3,014 10.1 1.8°
Reaches altitude 10° 03:44:59 10° 222° (SW) 2,110 9.3 2.2°
Maximum altitude 03:49:43 51° 147° (SSE) 856 8.1 3.0°
Drops below altitude 10° 03:54:27 10° 73° (ENE) 2,099 12.0 3.8°
Sets 03:56:49 0° 68° (ENE) 2,998 12.5 4.2°
